SWA6132 KMAF-KHOU

Flight info

Callsign SWA6132
Flight time 1h 3m
Altitude 35000
Route SAT PSX LAMMY SHLLL BAYYY5
Aircraft B737/M-SDE2E3GIJ4RWZ/LB1D1

Departure

Time 2026-04-26 12:31
Airport Midland International Air and Space Port (KMAF)

Arrival

Time 2026-04-26 13:35
Airport William P. Hobby Airport (KHOU)
Time Latitude Longitude Altitude Speed Heading
2026-04-26 12:27 31.93629 -102.19330 2863 ft 0 kts 329°
2026-04-26 12:30 31.93659 -102.19344 2862 ft 9 kts 340°
2026-04-26 12:30 31.93722 -102.19332 2861 ft 14 kts 40°
2026-04-26 12:30 31.93818 -102.19217 2862 ft 16 kts 17°
2026-04-26 12:31 31.94164 -102.20040 2873 ft 133 kts 294°
2026-04-26 12:31 31.94644 -102.21304 2940 ft 198 kts 294°
2026-04-26 12:31 31.95273 -102.22871 3621 ft 224 kts 290°
2026-04-26 12:31 31.95663 -102.24730 4117 ft 242 kts 275°
2026-04-26 12:32 31.95442 -102.26691 4500 ft 253 kts 249°
2026-04-26 12:32 31.94297 -102.28317 4809 ft 272 kts 214°
2026-04-26 12:32 31.90452 -102.28078 5736 ft 314 kts 144°
2026-04-26 12:33 31.89120 -102.25984 6202 ft 330 kts 111°
2026-04-26 12:33 31.88644 -102.23329 6820 ft 336 kts 93°
2026-04-26 12:33 31.88650 -102.20541 7478 ft 340 kts 85°
2026-04-26 12:33 31.89032 -102.17947 7870 ft 307 kts 70°
2026-04-26 12:34 31.89628 -102.15590 8225 ft 301 kts 79°
2026-04-26 12:34 31.89539 -102.13078 8455 ft 312 kts 109°
2026-04-26 12:34 31.88684 -102.10784 8828 ft 302 kts 119°
2026-04-26 12:34 31.87719 -102.08561 9316 ft 308 kts 120°
2026-04-26 12:35 31.86697 -102.06347 9765 ft 309 kts 122°
2026-04-26 12:35 31.85618 -102.04150 10111 ft 313 kts 124°
2026-04-26 12:35 31.84472 -102.01926 10472 ft 330 kts 125°
2026-04-26 12:35 31.83232 -101.99602 10848 ft 342 kts 126°
2026-04-26 12:36 31.81918 -101.97202 11219 ft 354 kts 127°
2026-04-26 12:36 31.80534 -101.94743 11597 ft 366 kts 127°
2026-04-26 12:36 31.79110 -101.92244 11949 ft 370 kts 127°
2026-04-26 12:36 31.77663 -101.89726 12296 ft 374 kts 128°
2026-04-26 12:37 31.76182 -101.87185 12635 ft 377 kts 128°
2026-04-26 12:37 31.74699 -101.84629 12961 ft 381 kts 128°
2026-04-26 12:37 31.73183 -101.82060 13318 ft 384 kts 129°
2026-04-26 12:37 31.71653 -101.79489 13673 ft 386 kts 129°
2026-04-26 12:38 31.70116 -101.76893 13990 ft 388 kts 129°
2026-04-26 12:38 31.68577 -101.74284 14387 ft 390 kts 129°
2026-04-26 12:38 31.67024 -101.71654 14807 ft 393 kts 129°
2026-04-26 12:38 31.65458 -101.69000 15226 ft 397 kts 129°
2026-04-26 12:39 31.63879 -101.66319 15644 ft 400 kts 129°
2026-04-26 12:39 31.62288 -101.63685 16054 ft 402 kts 130°
2026-04-26 12:39 31.60634 -101.60974 16469 ft 405 kts 130°
2026-04-26 12:39 31.59008 -101.58308 16860 ft 408 kts 130°
2026-04-26 12:40 31.57353 -101.55590 17268 ft 410 kts 130°
2026-04-26 12:40 31.55692 -101.52849 17665 ft 414 kts 130°
2026-04-26 12:40 31.54021 -101.50090 18049 ft 417 kts 130°
2026-04-26 12:40 31.52340 -101.47314 18411 ft 418 kts 130°
2026-04-26 12:41 31.50677 -101.44503 18780 ft 421 kts 129°
2026-04-26 12:41 31.49018 -101.41668 19152 ft 423 kts 129°
2026-04-26 12:41 31.47348 -101.38818 19533 ft 425 kts 129°
2026-04-26 12:41 31.45646 -101.35978 19883 ft 427 kts 130°
2026-04-26 12:42 31.43915 -101.33135 20237 ft 429 kts 130°
2026-04-26 12:42 31.42183 -101.30291 20606 ft 430 kts 130°
2026-04-26 12:42 31.40444 -101.27434 20975 ft 432 kts 130°
2026-04-26 12:42 31.38698 -101.24564 21345 ft 433 kts 130°
2026-04-26 12:43 31.36944 -101.21682 21719 ft 436 kts 130°
2026-04-26 12:43 31.35183 -101.18786 22106 ft 438 kts 130°
2026-04-26 12:43 31.33411 -101.15874 22483 ft 441 kts 130°
2026-04-26 12:43 31.31653 -101.12985 22835 ft 444 kts 130°
2026-04-26 12:44 31.29858 -101.10036 23191 ft 446 kts 130°
2026-04-26 12:44 31.28058 -101.07075 23514 ft 448 kts 130°
2026-04-26 12:44 31.26248 -101.04099 23812 ft 450 kts 130°
2026-04-26 12:44 31.24427 -101.01103 24138 ft 453 kts 130°
2026-04-26 12:45 31.22597 -100.98080 24460 ft 457 kts 130°
2026-04-26 12:45 31.20756 -100.95031 24772 ft 460 kts 130°
2026-04-26 12:45 31.18909 -100.91963 25106 ft 463 kts 130°
2026-04-26 12:45 31.17061 -100.88877 25420 ft 465 kts 130°
2026-04-26 12:46 31.15196 -100.85764 25736 ft 468 kts 130°
2026-04-26 12:46 31.13296 -100.82661 26049 ft 471 kts 131°
2026-04-26 12:46 31.11380 -100.79552 26369 ft 473 kts 131°
2026-04-26 12:46 31.09459 -100.76429 26686 ft 475 kts 131°
2026-04-26 12:47 31.07526 -100.73286 27017 ft 478 kts 131°
2026-04-26 12:47 31.05582 -100.70122 27352 ft 481 kts 131°
2026-04-26 12:47 31.03652 -100.66977 27671 ft 484 kts 131°
2026-04-26 12:47 31.01687 -100.63774 28003 ft 486 kts 131°
2026-04-26 12:48 30.99716 -100.60557 28341 ft 489 kts 131°
2026-04-26 12:48 30.97735 -100.57323 28674 ft 491 kts 131°
2026-04-26 12:48 30.95749 -100.54073 29017 ft 494 kts 131°
2026-04-26 12:48 30.93750 -100.50792 29343 ft 497 kts 130°
2026-04-26 12:49 30.91744 -100.47496 29670 ft 499 kts 130°
2026-04-26 12:49 30.89733 -100.44191 29973 ft 501 kts 131°
2026-04-26 12:49 30.87689 -100.40895 30252 ft 504 kts 131°
2026-04-26 12:49 30.85641 -100.37635 30530 ft 507 kts 131°
2026-04-26 12:50 30.83550 -100.34306 30811 ft 510 kts 131°
2026-04-26 12:50 30.81458 -100.30963 31098 ft 513 kts 131°
2026-04-26 12:50 30.79382 -100.27573 31387 ft 515 kts 130°
2026-04-26 12:50 30.77310 -100.24162 31681 ft 517 kts 130°
2026-04-26 12:51 30.75224 -100.20747 31975 ft 518 kts 131°
2026-04-26 12:51 30.73108 -100.17356 32275 ft 519 kts 131°
2026-04-26 12:51 30.70974 -100.13957 32577 ft 520 kts 131°
2026-04-26 12:51 30.68836 -100.10552 32865 ft 521 kts 131°
2026-04-26 12:52 30.66699 -100.07139 33149 ft 523 kts 131°
2026-04-26 12:52 30.64561 -100.03718 33463 ft 524 kts 131°
2026-04-26 12:52 30.62445 -100.00332 33764 ft 524 kts 131°
2026-04-26 12:52 30.60300 -99.96894 34026 ft 525 kts 131°
2026-04-26 12:53 30.58163 -99.93457 34286 ft 526 kts 131°
2026-04-26 12:53 30.56024 -99.90016 34551 ft 526 kts 131°
2026-04-26 12:53 30.53883 -99.86576 34798 ft 527 kts 131°
2026-04-26 12:54 30.49553 -99.79620 34855 ft 537 kts 131°
2026-04-26 12:54 30.45143 -99.72550 34861 ft 544 kts 131°
2026-04-26 12:55 30.40679 -99.65417 34948 ft 546 kts 131°
2026-04-26 12:55 30.36199 -99.58270 34972 ft 549 kts 131°
2026-04-26 12:56 30.31718 -99.51140 34940 ft 552 kts 131°
2026-04-26 12:56 30.27163 -99.43962 34912 ft 553 kts 132°
2026-04-26 12:57 30.22555 -99.36816 34921 ft 555 kts 131°
2026-04-26 12:57 30.18002 -99.29603 34960 ft 555 kts 131°
2026-04-26 12:58 30.11178 -99.18787 35013 ft 556 kts 131°
2026-04-26 12:58 30.06610 -99.11572 35044 ft 556 kts 131°
2026-04-26 12:59 30.02814 -99.05586 35046 ft 556 kts 131°
2026-04-26 12:59 29.98195 -98.98446 35046 ft 555 kts 132°
2026-04-26 13:00 29.92816 -98.90151 35013 ft 555 kts 131°
2026-04-26 13:00 29.88983 -98.84146 34986 ft 555 kts 131°
2026-04-26 13:01 29.84397 -98.76969 34959 ft 556 kts 130°
2026-04-26 13:01 29.79814 -98.69805 34952 ft 556 kts 130°
2026-04-26 13:02 29.75226 -98.62637 34972 ft 556 kts 130°
2026-04-26 13:02 29.72952 -98.59093 34973 ft 541 kts 131°
2026-04-26 13:02 29.70716 -98.55664 34987 ft 531 kts 131°
2026-04-26 13:03 29.66282 -98.48952 34615 ft 533 kts 130°
2026-04-26 13:03 29.64416 -98.45265 34131 ft 537 kts 112°
2026-04-26 13:03 29.63568 -98.41105 33593 ft 534 kts 92°
2026-04-26 13:04 29.63816 -98.36889 33101 ft 523 kts 77°
2026-04-26 13:04 29.64526 -98.32828 32766 ft 513 kts 76°
2026-04-26 13:04 29.65162 -98.28820 32394 ft 507 kts 79°
2026-04-26 13:04 29.65646 -98.24815 31990 ft 505 kts 81°
2026-04-26 13:05 29.66026 -98.20790 31578 ft 506 kts 83°
2026-04-26 13:05 29.66344 -98.16778 31188 ft 503 kts 83°
2026-04-26 13:05 29.66629 -98.12786 30784 ft 499 kts 84°
2026-04-26 13:05 29.66885 -98.08827 30379 ft 494 kts 84°
2026-04-26 13:06 29.67137 -98.04905 29981 ft 490 kts 84°
2026-04-26 13:06 29.67393 -98.01018 29524 ft 486 kts 84°
2026-04-26 13:06 29.67646 -97.97158 29062 ft 482 kts 85°
2026-04-26 13:06 29.67860 -97.93326 28607 ft 478 kts 85°
2026-04-26 13:07 29.68061 -97.89523 28124 ft 475 kts 85°
2026-04-26 13:07 29.68262 -97.85745 27681 ft 471 kts 85°
2026-04-26 13:07 29.68466 -97.82042 27252 ft 468 kts 84°
2026-04-26 13:07 29.68704 -97.78326 26825 ft 464 kts 84°
2026-04-26 13:08 29.68947 -97.74642 26402 ft 461 kts 84°
2026-04-26 13:08 29.69187 -97.70985 25990 ft 457 kts 84°
2026-04-26 13:08 29.69420 -97.67353 25579 ft 453 kts 84°
2026-04-26 13:08 29.69617 -97.63756 25177 ft 449 kts 85°
2026-04-26 13:09 29.69799 -97.60184 24781 ft 444 kts 85°
2026-04-26 13:09 29.69979 -97.56658 24399 ft 440 kts 85°
2026-04-26 13:09 29.70186 -97.53164 24002 ft 436 kts 84°
2026-04-26 13:09 29.70411 -97.49701 23626 ft 432 kts 84°
2026-04-26 13:10 29.70632 -97.46270 23223 ft 429 kts 84°
2026-04-26 13:10 29.70850 -97.42861 22774 ft 426 kts 84°
2026-04-26 13:10 29.71064 -97.39493 22325 ft 415 kts 84°
2026-04-26 13:10 29.71260 -97.36225 21788 ft 405 kts 84°
2026-04-26 13:11 29.71414 -97.33011 21150 ft 400 kts 85°
2026-04-26 13:11 29.71560 -97.29835 20528 ft 394 kts 84°
2026-04-26 13:11 29.71731 -97.26714 19918 ft 389 kts 84°
2026-04-26 13:11 29.71902 -97.23634 19325 ft 384 kts 84°
2026-04-26 13:12 29.72067 -97.20588 18745 ft 379 kts 84°
2026-04-26 13:12 29.72225 -97.17583 18174 ft 375 kts 84°
2026-04-26 13:12 29.72374 -97.14602 17537 ft 370 kts 84°
2026-04-26 13:12 29.72522 -97.11700 16906 ft 366 kts 84°
2026-04-26 13:13 29.72679 -97.08798 16284 ft 362 kts 84°
2026-04-26 13:13 29.72846 -97.05928 15672 ft 357 kts 84°
2026-04-26 13:13 29.73020 -97.03089 15069 ft 353 kts 84°
2026-04-26 13:13 29.73188 -97.00288 14478 ft 349 kts 85°
2026-04-26 13:14 29.73334 -96.97517 13901 ft 345 kts 85°
2026-04-26 13:14 29.73486 -96.94791 13505 ft 339 kts 85°
2026-04-26 13:14 29.73646 -96.92078 13076 ft 337 kts 85°
2026-04-26 13:14 29.73804 -96.89425 12658 ft 335 kts 85°
2026-04-26 13:15 29.73933 -96.86774 12380 ft 328 kts 86°
2026-04-26 13:15 29.74061 -96.84176 12107 ft 322 kts 85°
2026-04-26 13:15 29.74191 -96.81614 11838 ft 319 kts 85°
2026-04-26 13:15 29.74325 -96.79068 11569 ft 319 kts 85°
2026-04-26 13:16 29.74466 -96.76519 11303 ft 319 kts 85°
2026-04-26 13:16 29.74606 -96.73976 11040 ft 318 kts 85°
2026-04-26 13:16 29.74749 -96.71446 10777 ft 316 kts 85°
2026-04-26 13:16 29.74893 -96.68966 10519 ft 314 kts 86°
2026-04-26 13:17 29.75126 -96.63974 10020 ft 311 kts 86°
2026-04-26 13:17 29.75246 -96.61492 9772 ft 309 kts 86°
2026-04-26 13:18 29.75491 -96.56563 9247 ft 307 kts 86°
2026-04-26 13:18 29.75618 -96.54108 8976 ft 307 kts 86°
2026-04-26 13:18 29.75883 -96.49215 8450 ft 305 kts 86°
2026-04-26 13:19 29.76014 -96.46814 8192 ft 304 kts 87°
2026-04-26 13:19 29.76121 -96.44385 7929 ft 303 kts 88°
2026-04-26 13:19 29.76228 -96.41961 7671 ft 302 kts 88°
2026-04-26 13:19 29.76341 -96.39548 7419 ft 301 kts 87°
2026-04-26 13:20 29.76455 -96.37147 7156 ft 300 kts 88°
2026-04-26 13:20 29.76573 -96.34751 6891 ft 299 kts 87°
2026-04-26 13:20 29.76700 -96.32362 6649 ft 299 kts 87°
2026-04-26 13:20 29.76829 -96.29968 6399 ft 298 kts 88°
2026-04-26 13:21 29.76941 -96.27586 6135 ft 298 kts 88°
2026-04-26 13:21 29.77008 -96.25979 5954 ft 297 kts 89°
2026-04-26 13:21 29.77158 -96.22853 5593 ft 293 kts 88°
2026-04-26 13:21 29.77284 -96.20526 5323 ft 291 kts 89°
2026-04-26 13:22 29.77398 -96.18209 5057 ft 289 kts 89°
2026-04-26 13:22 29.77518 -96.15912 4787 ft 285 kts 90°
2026-04-26 13:22 29.77627 -96.13684 4543 ft 273 kts 90°
2026-04-26 13:22 29.77738 -96.11537 4271 ft 263 kts 90°
2026-04-26 13:23 29.77824 -96.09475 4104 ft 253 kts 91°
2026-04-26 13:23 29.77903 -96.07453 4052 ft 254 kts 91°
2026-04-26 13:23 29.77990 -96.05415 4026 ft 256 kts 91°
2026-04-26 13:23 29.78073 -96.03368 4030 ft 256 kts 91°
2026-04-26 13:24 29.78152 -96.01325 4042 ft 256 kts 91°
2026-04-26 13:24 29.78233 -95.99269 4044 ft 257 kts 91°
2026-04-26 13:24 29.78317 -95.97209 4039 ft 258 kts 91°
2026-04-26 13:24 29.78428 -95.95173 4046 ft 257 kts 90°
2026-04-26 13:25 29.78546 -95.93126 4090 ft 255 kts 91°
2026-04-26 13:25 29.78635 -95.91106 4143 ft 250 kts 87°
2026-04-26 13:25 29.78721 -95.89127 4130 ft 245 kts 87°
2026-04-26 13:25 29.78805 -95.87175 4132 ft 243 kts 87°
2026-04-26 13:26 29.78890 -95.85221 4143 ft 246 kts 87°
2026-04-26 13:26 29.78974 -95.83244 4138 ft 248 kts 87°
2026-04-26 13:26 29.79061 -95.81261 4134 ft 247 kts 87°
2026-04-26 13:26 29.79148 -95.79287 4138 ft 246 kts 87°
2026-04-26 13:27 29.79233 -95.77323 4135 ft 246 kts 87°
2026-04-26 13:27 29.79320 -95.75358 4143 ft 247 kts 87°
2026-04-26 13:27 29.79406 -95.73406 4137 ft 247 kts 87°
2026-04-26 13:27 29.79493 -95.71437 4135 ft 247 kts 87°
2026-04-26 13:28 29.79582 -95.69442 4138 ft 247 kts 87°
2026-04-26 13:28 29.79669 -95.67486 4135 ft 246 kts 87°
2026-04-26 13:28 29.79758 -95.65493 4134 ft 246 kts 87°
2026-04-26 13:28 29.79845 -95.63546 4136 ft 247 kts 87°
2026-04-26 13:29 29.79933 -95.61575 4135 ft 247 kts 87°
2026-04-26 13:29 29.79993 -95.60261 4134 ft 247 kts 87°
2026-04-26 13:29 29.80110 -95.57681 4146 ft 234 kts 87°
2026-04-26 13:29 29.80194 -95.55841 4148 ft 228 kts 87°
2026-04-26 13:30 29.80278 -95.53994 4152 ft 235 kts 87°
2026-04-26 13:30 29.80365 -95.52110 4144 ft 234 kts 87°
2026-04-26 13:30 29.80450 -95.50253 4149 ft 230 kts 87°
2026-04-26 13:30 29.80462 -95.48385 3964 ft 239 kts 99°
2026-04-26 13:31 29.79723 -95.46740 3688 ft 229 kts 132°
2026-04-26 13:31 29.78643 -95.45369 3659 ft 234 kts 131°
2026-04-26 13:31 29.77579 -95.43958 3585 ft 233 kts 132°
2026-04-26 13:31 29.76514 -95.42580 3507 ft 233 kts 132°
2026-04-26 13:32 29.75438 -95.41180 3395 ft 232 kts 132°
2026-04-26 13:32 29.74373 -95.39788 3265 ft 227 kts 130°
2026-04-26 13:32 29.73494 -95.38419 2764 ft 200 kts 126°
2026-04-26 13:32 29.72680 -95.37199 2196 ft 185 kts 129°
2026-04-26 13:33 29.71865 -95.36160 1834 ft 170 kts 131°
2026-04-26 13:33 29.70996 -95.35116 1542 ft 184 kts 134°
2026-04-26 13:33 29.70078 -95.34103 1417 ft 186 kts 136°
2026-04-26 13:33 29.69093 -95.33008 1252 ft 202 kts 136°
2026-04-26 13:34 29.68077 -95.31874 950 ft 201 kts 134°
2026-04-26 13:34 29.67091 -95.30751 619 ft 198 kts 134°
2026-04-26 13:34 29.66136 -95.29702 309 ft 183 kts 133°
2026-04-26 13:34 29.65555 -95.29045 144 ft 172 kts 130°
2026-04-26 13:35 29.64495 -95.27795 49 ft 143 kts 136°
2026-04-26 13:35 29.64135 -95.27380 50 ft 44 kts 135°
2026-04-26 13:35 29.63967 -95.27179 49 ft 30 kts 124°
2026-04-26 13:35 29.63921 -95.26985 50 ft 18 kts 89°
2026-04-26 13:36 29.63935 -95.26912 48 ft 9 kts 64°
2026-04-26 13:36 29.64026 -95.26869 50 ft 22 kts
2026-04-26 13:36 29.64173 -95.26907 49 ft 23 kts 310°
2026-04-26 13:36 29.64274 -95.27042 49 ft 22 kts 310°
2026-04-26 13:37 29.64370 -95.27175 47 ft 21 kts 303°
2026-04-26 13:37 29.64450 -95.27314 45 ft 20 kts 312°
2026-04-26 13:37 29.64535 -95.27412 48 ft 16 kts 315°
2026-04-26 13:37 29.64607 -95.27486 49 ft 13 kts 341°
2026-04-26 13:38 29.64684 -95.27443 50 ft 13 kts 38°
2026-04-26 13:38 29.64748 -95.27376 49 ft 12 kts 44°
2026-04-26 13:38 29.64813 -95.27370 49 ft 12 kts 304°
2026-04-26 13:38 29.64830 -95.27461 50 ft 11 kts 298°
2026-04-26 13:39 29.64897 -95.27509 50 ft 11 kts 343°
2026-04-26 13:39 29.64974 -95.27518 49 ft 11 kts 357°
2026-04-26 13:39 29.65049 -95.27522 49 ft 11 kts 357°
2026-04-26 13:39 29.65120 -95.27526 49 ft 10 kts 359°
2026-04-26 13:40 29.65187 -95.27507 49 ft 10 kts 18°
2026-04-26 13:40 29.65211 -95.27498 49 ft 0 kts 18°